Temp
-4 -4 -4 -4 -4 -4 -4 -4 -4 -4 -4 -4 -4 -4 -4 -4 -4 -4 -4 -4 -4 -4 -4 -4 -4 -4 -4 -5 -5 -5 -5 -5 -5 -5 -6 -5 -6 -6 -6 -6 -6 -6
-4 -4 -4 -4 -4 -4 -4 -4 -4 -4 -4 -4 -4 -4 -4 -4 -4 -4 -4 -4 -4 -4 -4 -4 -4 -4 -5 -5 -5 -5 -5 -5 -5 -6 -6 -6 -6 -6 -6 -6 -6 -6
-4 -4 -4 -4 -4 -4 -4 -4 -4 -4 -4 -4 -4 -4 -4 -4 -4 -4 -4 -4 -4 -4 -4 -4 -4 -4 -5 -5 -5 -5 -5 -5 -5 -6 -6 -6 -6 -6 -6 -6 -6 -6
-4 -4 -4 -4 -4 -4 -4 -4 -4 -4 -4 -4 -4 -4 -4 -4 -4 -4 -4 -3 -3 -3 -4 -4 -4 -4 -4 -5 -5 -5 -5 -5 -5 -6 -6 -6 -6 -6 -6 -6 -6 -5
-4 -4 -4 -4 -4 -4 -4 -4 -4 -4 -4 -4 -4 -4 -4 -4 -4 -4 -4 -3 -3 -3 -4 -4 -4 -4 -4 -5 -5 -5 -5 -5 -5 -6 -6 -6 -6 -6 -6 -6 -5 -5
-4 -4 -4 -4 -4 -4 -4 -4 -4 -4 -4 -4 -4 -4 -4 -4 -4 -4 -4 -3 -3 -3 -4 -4 -4 -4 -4 -5 -5 -5 -5 -5 -5 -5 -5 -5 -5 -5 -6 -6 -6 -5
-4 -4 -4 -4 -4 -4 -4 -4 -4 -4 -4 -4 -4 -4 -4 -4 -4 -4 -4 -4 -4 -4 -4 -4 -4 -4 -4 -5 -5 -5 -5 -5 -5 -5 -5 -5 -5 -5 -5 -6 -6 -6
-4 -4 -4 -4 -4 -4 -4 -4 -4 -4 -4 -4 -4 -4 -4 -4 -4 -4 -4 -4 -4 -4 -4 -4 -4 -4 -5 -5 -5 -5 -5 -5 -5 -5 -5 -5 -5 -5 -5 -5 -6 -6
-4 -4 -4 -4 -4 -4 -4 -4 -4 -4 -4 -4 -4 -4 -4 -4 -4 -4 -4 -4 -4 -4 -4 -4 -4 -4 -5 -5 -5 -5 -5 -5 -5 -5 -5 -5 -5 -5 -5 -5 -6 -6
-3 -4 -4 -4 -4 -4 -4 -4 -4 -4 -4 -4 -4 -4 -4 -4 -4 -4 -4 -4 -4 -4 -4 -4 -4 -4 -5 -5 -5 -5 -5 -5 -5 -5 -5 -5 -5 -5 -5 -5 -5 -6
-3 -4 -4 -4 -4 -4 -4 -4 -4 -4 -4 -4 -4 -4 -4 -4 -4 -4 -4 -4 -4 -4 -4 -4 -4 -4 -5 -5 -5 -5 -5 -5 -5 -5 -5 -5 -5 -5 -5 -5 -5 -6
-3 -4 -4 -4 -4 -4 -4 -4 -4 -5 -4 -4 -4 -4 -4 -4 -4 -4 -4 -4 -4 -4 -4 -4 -4 -4 -5 -5 -5 -5 -5 -5 -5 -5 -5 -5 -5 -5 -5 -5 -5 -5
-4 -4 -4 -4 -4 -4 -4 -4 -4 -5 -5 -4 -4 -4 -4 -4 -4 -5 -4 -4 -4 -4 -4 -4 -4 -5 -5 -5 -5 -5 -5 -5 -5 -5 -5 -5 -5 -5 -5 -5 -5 -5
-4 -4 -4 -4 -4 -4 -4 -4 -4 -4 -5 -4 -4 -4 -4 -4 -4 -5 -4 -4 -4 -4 -4 -4 -4 -5 -5 -5 -5 -5 -5 -5 -5 -5 -5 -5 -5 -5 -5 -5 -5 -5
-4 -4 -4 -4 -4 -4 -4 -4 -4 -4 -4 -4 -4 -4 -4 -4 -4 -4 -4 -4 -4 -4 -4 -4 -5 -5 -5 -5 -5 -5 -5 -5 -5 -5 -5 -5 -5 -5 -5 -5 -5 -5
-4 -4 -4 -4 -4 -5 -5 -5 -5 -4 -4 -4 -4 -4 -4 -4 -4 -4 -4 -4 -4 -4 -4 -4 -5 -5 -5 -5 -5 -5 -5 -5 -5 -5 -5 -5 -5 -5 -5 -5 -5 -5
-4 -4 -4 -4 -4 -5 -5 -5 -5 -5 -5 -5 -4 -4 -4 -4 -4 -4 -4 -4 -4 -4 -4 -4 -5 -5 -5 -5 -5 -5 -5 -5 -5 -5 -5 -5 -5 -5 -5 -5 -5 -5
-4 -4 -4 -4 -5 -5 -5 -5 -5 -5 -5 -5 -5 -4 -4 -4 -4 -4 -4 -4 -4 -4 -4 -4 -5 -5 -5 -5 -5 -5 -5 -5 -5 -5 -5 -5 -5 -5 -5 -5 -5 -5
-5 -5 -5 -5 -5 -5 -5 -5 -5 -5 -5 -5 -5 -5 -4 -4 -4 -4 -4 -4 -4 -4 -4 -4 -5 -5 -5 -5 -5 -5 -5 -5 -5 -5 -5 -5 -5 -5 -5 -5 -5 -5
-5 -5 -5 -5 -5 -5 -5 -5 -5 -5 -5 -5 -5 -5 -5 -4 -4 -4 -4 -5 -5 -4 -4 -4 -4 -5 -5 -5 -5 -5 -5 -5 -5 -5 -5 -5 -5 -5 -5 -5 -5 -5
-6 -6 -6 -6 -6 -5 -5 -5 -5 -5 -5 -5 -5 -5 -5 -5 -4 -4 -4 -5 -5 -5 -5 -5 -5 -5 -5 -5 -5 -4 -4 -4 -5 -5 -5 -5 -5 -5 -5 -5 -5 -5
-6 -6 -6 -6 -6 -6 -6 -5 -5 -5 -5 -5 -5 -5 -5 -5 -5 -4 -4 -4 -5 -5 -5 -5 -5 -5 -5 -5 -5 -4 -4 -4 -4 -5 -5 -5 -5 -5 -5 -5 -5 -5
-5 -6 -6 -6 -6 -6 -6 -6 -6 -5 -5 -5 -5 -5 -5 -5 -5 -5 -4 -4 -4 -5 -5 -5 -5 -5 -5 -5 -5 -4 -4 -4 -4 -4 -4 -5 -5 -5 -5 -5 -5 -5
-5 -5 -6 -6 -6 -6 -6 -6 -6 -6 -5 -5 -5 -5 -5 -5 -5 -5 -5 -4 -4 -5 -5 -5 -5 -5 -5 -5 -4 -4 -4 -4 -4 -4 -4 -5 -5 -5 -5 -5 -5 -5
-5 -5 -6 -6 -6 -6 -6 -6 -6 -6 -5 -5 -5 -5 -5 -5 -5 -5 -5 -5 -5 -5 -5 -5 -5 -5 -5 -5 -5 -4 -4 -4 -4 -4 -4 -5 -5 -5 -5 -5 -5 -5
-6 -6 -6 -6 -6 -6 -6 -6 -6 -5 -5 -5 -5 -5 -5 -5 -5 -5 -5 -5 -5 -5 -5 -5 -5 -5 -5 -5 -5 -5 -5 -5 -4 -4 -4 -5 -5 -5 -5 -5 -6 -6
Height
5943 5945 5947 5948 5949 5951 5952 5953 5955 5956 5957 5958 5960 5961 5962 5963 5964 5965 5965 5966 5966 5967 5967 5967 5968 5968 5968 5969 5969 5970 5970 5970 5971 5970 5970 5969 5969 5969 5970 5970 5971 5971
5942 5944 5946 5947 5949 5950 5952 5953 5954 5955 5957 5958 5959 5961 5962 5963 5964 5964 5965 5966 5966 5967 5967 5967 5968 5968 5968 5969 5970 5970 5970 5970 5970 5970 5970 5970 5969 5969 5970 5970 5970 5971
5941 5943 5945 5946 5948 5949 5951 5952 5953 5955 5956 5958 5959 5960 5961 5962 5963 5964 5965 5965 5966 5966 5967 5967 5968 5968 5969 5969 5970 5970 5970 5970 5970 5971 5970 5970 5970 5970 5970 5970 5970 5971
5940 5942 5944 5946 5947 5949 5950 5952 5953 5954 5956 5957 5959 5960 5961 5962 5962 5963 5964 5965 5965 5966 5967 5967 5968 5968 5969 5969 5970 5970 5970 5971 5971 5971 5971 5971 5971 5971 5971 5971 5971 5971
5938 5940 5943 5944 5946 5948 5950 5951 5952 5954 5955 5957 5958 5959 5960 5961 5962 5963 5963 5964 5965 5966 5966 5967 5967 5968 5968 5969 5970 5970 5971 5971 5971 5971 5972 5972 5972 5972 5972 5972 5972 5972
5936 5938 5941 5943 5945 5947 5949 5950 5952 5953 5955 5956 5957 5959 5960 5960 5961 5962 5963 5964 5965 5965 5966 5967 5967 5967 5968 5969 5970 5970 5971 5971 5972 5972 5972 5972 5972 5973 5973 5973 5973 5973
5934 5936 5939 5941 5944 5946 5948 5949 5951 5952 5954 5955 5957 5958 5959 5960 5961 5962 5963 5963 5964 5965 5966 5966 5967 5967 5968 5969 5970 5970 5971 5972 5972 5972 5973 5973 5973 5973 5973 5974 5974 5974
5931 5933 5936 5939 5942 5944 5946 5948 5950 5951 5953 5955 5956 5958 5959 5960 5960 5961 5962 5963 5964 5965 5965 5966 5966 5967 5968 5968 5969 5970 5971 5972 5972 5973 5973 5974 5974 5974 5974 5974 5974 5974
5929 5931 5934 5937 5940 5943 5945 5947 5949 5950 5952 5954 5955 5956 5958 5959 5959 5960 5962 5963 5964 5964 5965 5966 5966 5967 5967 5968 5969 5970 5971 5972 5973 5973 5974 5974 5974 5974 5974 5974 5975 5975
5927 5929 5932 5935 5938 5941 5943 5945 5947 5949 5951 5952 5954 5955 5957 5958 5959 5959 5961 5962 5963 5964 5964 5965 5966 5966 5967 5968 5969 5970 5971 5972 5973 5973 5974 5974 5975 5975 5975 5975 5975 5975
5926 5927 5930 5932 5935 5938 5941 5943 5945 5947 5949 5951 5952 5954 5955 5956 5958 5958 5959 5961 5962 5962 5963 5964 5965 5966 5967 5968 5968 5969 5970 5971 5973 5973 5974 5974 5974 5975 5975 5975 5975 5975
5924 5925 5927 5930 5932 5935 5938 5940 5943 5945 5946 5948 5950 5952 5953 5955 5956 5957 5958 5959 5960 5961 5962 5963 5964 5965 5966 5967 5968 5969 5970 5971 5972 5973 5973 5974 5974 5974 5974 5974 5975 5975
5922 5923 5924 5927 5929 5932 5935 5937 5940 5942 5944 5946 5948 5950 5952 5953 5954 5956 5957 5958 5959 5960 5961 5962 5963 5964 5965 5966 5967 5968 5969 5970 5971 5972 5973 5973 5974 5974 5974 5974 5974 5974
5920 5920 5921 5924 5926 5929 5932 5935 5938 5940 5942 5944 5946 5948 5950 5951 5952 5953 5955 5956 5957 5959 5960 5961 5962 5963 5964 5965 5966 5967 5968 5969 5970 5971 5972 5972 5973 5973 5973 5973 5973 5973
5917 5918 5919 5921 5924 5926 5929 5932 5935 5937 5939 5941 5943 5946 5947 5949 5950 5951 5953 5954 5955 5957 5958 5960 5961 5962 5963 5964 5965 5966 5967 5968 5969 5970 5971 5971 5972 5972 5972 5972 5972 5972
5915 5916 5917 5919 5921 5924 5926 5929 5931 5934 5936 5938 5940 5943 5945 5946 5948 5949 5950 5952 5953 5955 5956 5958 5959 5960 5961 5962 5963 5964 5965 5967 5968 5969 5969 5970 5971 5971 5971 5971 5971 5971
5913 5913 5914 5916 5918 5921 5924 5926 5928 5931 5933 5935 5937 5939 5942 5944 5945 5946 5948 5949 5951 5952 5954 5955 5957 5958 5959 5960 5961 5962 5964 5965 5966 5967 5968 5968 5969 5969 5970 5970 5970 5970
5911 5911 5912 5914 5916 5918 5921 5923 5926 5928 5930 5932 5934 5936 5938 5941 5943 5944 5945 5947 5948 5950 5951 5953 5954 5955 5956 5957 5958 5960 5961 5962 5964 5965 5966 5966 5967 5967 5967 5968 5968 5968
5908 5909 5910 5911 5913 5915 5918 5921 5923 5925 5928 5930 5931 5932 5934 5937 5940 5942 5943 5944 5946 5947 5949 5950 5951 5952 5953 5954 5956 5957 5958 5960 5961 5962 5963 5964 5965 5965 5965 5965 5966 5966
5905 5906 5907 5909 5911 5913 5916 5918 5920 5922 5924 5926 5928 5929 5931 5934 5936 5938 5940 5941 5943 5944 5946 5947 5948 5949 5950 5951 5952 5954 5955 5957 5958 5959 5960 5961 5962 5962 5962 5963 5963 5964
5902 5903 5905 5907 5909 5911 5913 5916 5918 5920 5921 5923 5925 5927 5928 5930 5932 5934 5936 5938 5939 5941 5942 5944 5945 5947 5947 5948 5949 5951 5952 5954 5955 5956 5958 5958 5959 5959 5959 5960 5960 5961
5899 5901 5903 5905 5907 5909 5911 5913 5915 5917 5919 5920 5922 5924 5925 5926 5928 5930 5933 5934 5936 5937 5938 5940 5942 5943 5944 5945 5946 5947 5949 5951 5952 5953 5955 5955 5956 5956 5956 5957 5957 5958
5897 5899 5901 5903 5905 5907 5909 5911 5913 5914 5916 5918 5919 5921 5922 5923 5925 5926 5928 5930 5932 5934 5935 5936 5938 5939 5941 5942 5942 5943 5945 5947 5949 5950 5951 5952 5952 5952 5953 5953 5954 5955
5896 5897 5899 5900 5902 5904 5907 5909 5910 5912 5913 5915 5917 5918 5919 5921 5921 5923 5925 5926 5928 5930 5932 5933 5934 5935 5937 5938 5939 5940 5941 5943 5945 5946 5948 5949 5949 5949 5949 5950 5951 5951
5894 5895 5896 5898 5900 5902 5904 5906 5907 5909 5911 5912 5914 5915 5916 5917 5918 5920 5921 5923 5925 5926 5928 5930 5931 5932 5933 5934 5935 5936 5937 5939 5940 5942 5944 5945 5945 5945 5946 5946 5947 5948
5891 5892 5893 5895 5897 5899 5900 5902 5904 5906 5908 5909 5911 5912 5913 5914 5915 5917 5918 5919 5921 5922 5924 5926 5927 5928 5929 5930 5931 5932 5933 5935 5936 5938 5939 5940 5941 5942 5942 5943 5944 5945
Wind_Speed
13 12 11 11 12 12 12 12 12 11 10 9 9 8 8 7 7 6 5 4 3 3 3 4 5 6 6 6 6 5 5 5 5 5 4 4 3 3 2 2 3 4
15 13 13 12 12 13 13 13 13 12 11 10 10 9 9 8 8 7 6 5 4 4 4 5 5 6 6 5 5 4 5 6 6 6 6 6 6 5 5 4 4 4
16 15 14 13 13 14 14 15 14 14 13 12 11 11 10 10 9 8 7 6 5 5 5 5 5 5 5 4 3 3 5 7 8 9 8 8 9 8 8 8 6 5
18 16 15 15 15 14 15 15 15 15 14 13 13 12 12 11 10 9 8 7 6 5 5 5 5 4 2 2 4 5 7 9 10 10 10 9 10 10 11 11 10 8
21 18 17 16 16 15 15 14 14 15 15 15 14 14 13 12 11 11 10 8 7 6 5 5 4 2 0 3 6 7 8 10 11 11 10 10 10 10 11 12 11 10
23 20 18 17 17 16 15 15 15 15 15 15 15 14 14 13 13 12 11 10 8 7 6 5 4 2 3 5 7 8 9 10 11 11 10 9 9 10 10 11 11 11
24 22 20 18 17 17 16 16 15 15 14 15 14 14 13 13 13 13 12 11 9 8 7 6 5 4 5 7 8 9 9 10 10 10 10 9 9 9 9 9 10 10
26 24 22 19 18 18 17 17 16 15 15 14 14 14 13 13 14 14 12 11 10 9 7 7 6 6 7 7 8 8 9 9 10 10 9 8 8 8 8 8 8 8
27 25 23 21 19 18 18 18 17 17 15 15 15 15 14 14 15 15 13 11 10 9 8 8 7 8 8 8 7 8 8 8 9 8 8 8 7 7 7 6 6 7
27 26 24 22 20 19 18 18 18 18 17 16 15 15 15 16 16 16 14 12 11 11 10 9 9 9 9 8 7 7 7 7 8 7 7 7 6 6 6 6 5 4
27 25 24 22 21 21 20 20 19 19 18 17 16 16 16 16 16 16 15 14 13 12 11 10 10 10 10 9 8 7 6 6 7 7 6 6 5 5 4 4 4 3
25 24 22 22 22 22 22 21 21 20 20 19 17 16 16 16 17 17 17 15 14 14 13 12 11 12 11 10 10 9 7 6 5 6 6 5 4 3 3 2 2 3
23 22 21 20 21 22 23 23 22 22 21 20 19 17 17 17 17 17 18 17 15 14 14 13 12 13 12 11 10 10 8 6 4 4 4 4 4 3 1 1 2 2
22 21 20 19 19 20 21 22 22 23 23 22 20 18 17 17 18 18 18 18 16 15 15 14 13 13 13 12 11 11 9 7 4 2 2 2 2 2 1 1 3 4
21 21 19 18 17 17 17 19 20 22 23 23 22 20 18 18 19 19 19 18 18 16 15 15 13 13 13 13 13 12 10 8 6 4 3 2 2 1 2 3 4 5
18 18 18 17 17 16 16 16 18 20 22 23 23 22 21 19 19 20 19 19 19 18 16 15 14 14 14 14 14 13 12 10 8 7 7 6 5 5 4 4 5 6
16 15 15 16 17 17 16 16 16 18 19 21 23 24 23 21 21 20 20 20 19 19 17 16 16 16 16 15 15 14 14 13 12 10 9 9 9 8 7 7 7 8
16 14 14 14 15 16 17 16 16 16 17 18 21 23 24 23 22 21 21 21 20 19 18 17 17 18 18 17 16 16 15 15 14 13 11 11 11 11 10 9 9 9
17 15 13 13 14 15 16 17 16 16 16 17 18 21 23 23 23 22 21 22 21 20 19 19 19 19 20 19 18 17 16 16 15 15 14 13 13 13 13 12 12 11
19 16 14 13 13 14 15 16 16 17 17 17 17 19 21 22 22 22 22 22 22 21 20 20 20 20 20 20 20 19 18 17 16 16 16 15 15 15 16 15 14 13
19 17 16 14 13 12 13 14 16 17 17 17 17 17 19 21 22 23 22 22 22 22 22 21 20 20 21 21 21 21 20 19 17 17 16 16 17 17 18 18 17 15
18 18 16 15 14 13 12 13 15 16 17 18 18 18 19 20 22 22 22 23 23 23 23 22 21 21 21 22 22 22 22 21 19 18 17 17 18 19 20 20 19 17
18 18 17 16 15 14 12 12 14 16 17 18 18 19 19 20 21 22 23 24 24 24 24 23 23 23 22 23 23 24 23 22 21 20 19 19 20 21 22 22 21 20
18 19 18 17 16 15 14 14 15 16 17 18 18 19 19 20 21 22 22 23 24 24 24 24 25 24 24 24 24 24 23 22 22 22 21 20 21 22 23 23 23 22
19 20 21 20 19 18 16 16 16 17 17 18 19 19 20 20 21 21 22 22 22 23 24 24 25 25 25 25 25 25 24 23 22 22 22 22 23 23 24 25 25 24
19 21 22 22 21 21 20 19 18 18 18 18 19 20 20 21 21 21 21 21 21 22 22 23 24 24 25 25 26 26 25 24 23 22 22 23 24 24 25 26 26 24
Wind_Direction
205 197 197 201 199 196 192 190 189 187 187 187 188 188 187 193 198 202 209 214 225 250 279 300 314 328 340 354 6 12 23 39 50 55 58 64 68 64 67 77 89 92
209 200 198 202 204 200 196 194 192 190 190 189 189 189 190 195 199 203 212 222 237 260 279 297 312 324 336 355 15 25 42 62 73 79 80 79 79 78 79 83 92 103
214 205 199 202 207 206 203 200 198 195 192 192 192 192 193 198 202 206 214 223 237 257 278 295 308 321 335 3 43 65 79 90 95 96 93 87 84 82 80 80 84 98
217 213 206 204 208 210 210 208 206 202 197 194 195 196 197 200 206 212 217 222 232 251 272 288 300 314 337 56 100 108 105 105 105 103 99 93 88 84 81 79 80 86
216 217 212 207 209 213 214 214 215 212 206 201 200 200 201 204 210 216 220 224 231 245 262 274 283 290 155 129 128 123 116 110 108 106 101 95 90 84 82 81 80 83
213 216 216 211 211 214 215 217 220 220 216 211 207 205 205 208 214 219 223 226 231 240 249 255 258 235 165 147 139 129 120 114 110 106 101 96 90 85 82 81 81 83
211 213 215 214 213 215 218 220 222 224 224 222 218 214 213 216 222 225 228 231 234 237 240 242 235 206 173 157 147 135 125 117 111 106 101 95 90 86 82 81 81 82
211 213 214 213 213 216 220 223 225 226 227 226 225 223 221 224 230 233 235 237 241 242 240 237 224 201 181 169 155 141 130 120 113 106 101 96 90 85 80 76 77 79
211 213 215 214 214 217 221 225 229 231 230 228 228 226 224 227 235 239 239 241 244 246 245 237 223 207 192 180 166 150 136 124 115 107 101 96 88 82 75 69 69 73
212 212 215 217 217 219 221 225 230 235 235 233 232 231 227 227 233 239 241 240 240 242 243 237 225 214 202 190 179 165 149 133 120 110 102 94 84 76 71 63 55 54
212 211 213 216 219 221 222 225 229 234 237 237 236 237 235 232 234 239 242 241 238 236 237 235 226 218 210 200 192 185 171 151 132 117 108 97 84 73 63 56 46 27
212 211 212 214 218 221 222 224 227 232 237 238 237 237 239 239 238 240 244 243 240 238 237 234 228 221 215 207 202 198 194 178 150 130 118 107 94 78 56 35 28 11
211 209 210 212 216 220 222 224 226 229 235 239 238 236 237 240 241 242 245 246 245 243 241 238 233 227 223 217 213 211 208 202 181 150 131 117 111 110 102 330 323 328
211 209 208 210 214 220 223 225 226 228 233 237 240 238 236 238 241 241 244 247 247 246 245 244 239 235 232 228 226 227 223 219 215 199 161 131 120 131 165 243 280 292
211 209 209 209 212 217 221 226 227 228 232 236 239 240 238 238 240 242 244 246 248 247 245 246 244 240 239 236 235 238 238 234 237 251 264 269 273 271 231 234 254 271
210 208 209 209 210 213 216 221 224 227 230 234 237 239 239 239 241 243 244 244 246 247 243 242 243 241 241 241 240 242 244 245 246 251 261 267 269 272 261 243 243 254
207 204 207 209 211 212 213 216 220 223 227 231 235 237 237 239 240 242 245 244 245 246 243 240 239 239 240 241 242 243 244 246 248 247 250 256 260 265 265 253 243 245
207 201 202 207 212 214 213 215 217 220 223 227 233 236 236 237 238 240 244 246 246 247 246 242 239 239 239 240 241 243 242 244 247 245 244 246 250 257 261 258 251 248
204 201 202 205 211 215 214 214 216 217 219 221 227 233 235 236 236 237 241 246 248 248 248 246 243 242 242 242 241 242 241 240 242 244 244 243 244 249 256 257 254 254
198 196 200 204 210 216 215 214 214 216 218 217 220 229 234 235 235 234 236 241 245 248 248 247 247 246 246 246 244 243 242 240 239 240 242 243 244 246 251 255 255 256
198 195 198 202 207 215 218 215 214 215 218 218 217 222 229 232 232 232 232 235 240 245 246 247 248 249 250 250 249 247 244 241 239 238 238 242 245 247 249 252 254 256
201 201 201 204 207 210 215 217 215 215 218 218 217 218 223 229 231 231 231 231 234 239 243 245 247 248 250 251 251 250 247 243 242 240 239 240 244 247 249 251 252 253
213 210 206 207 212 212 211 215 217 218 219 219 219 219 221 226 229 229 230 230 231 233 237 241 244 245 247 249 251 252 250 247 244 242 241 242 244 245 247 249 251 252
224 219 213 211 215 218 217 215 215 219 221 221 222 222 222 225 228 230 231 231 232 232 233 237 241 243 245 247 250 252 252 250 246 243 242 243 244 244 243 245 248 250
223 220 218 216 215 219 223 222 219 220 222 223 225 225 225 227 229 231 232 232 233 234 234 235 238 241 244 246 248 251 252 250 248 245 241 240 241 241 241 241 244 246
223 219 219 219 217 218 223 226 225 222 222 224 226 227 228 229 231 233 234 234 233 234 235 235 235 237 241 243 245 248 249 249 247 245 241 239 238 237 238 239 240 242